Wind_Speed
22 22 22 21 21 21 21 21 21 21 21 21 21 21 21 21 20 21 22 22 23 23 24 24 25 25 25 25 25 26 26 26 26 26 26 26 26 26 26 26 27 27 27
24 24 24 23 23 23 23 23 23 23 24 24 24 24 24 24 23 23 24 24 25 25 25 26 26 26 26 26 27 27 27 27 27 27 26 26 27 27 27 27 27 27 27
26 26 26 26 26 26 26 26 26 26 27 27 27 27 27 27 27 26 26 27 27 27 27 27 28 28 28 28 29 29 28 28 28 28 28 28 28 28 28 28 28 28 28
29 28 28 29 29 29 29 29 29 29 30 30 30 30 30 30 30 30 29 29 30 30 30 30 30 30 30 30 30 30 30 30 30 30 30 30 30 30 29 29 29 29 29
31 31 31 31 32 32 32 32 32 33 33 33 33 33 33 34 34 33 33 33 32 32 33 33 33 33 33 33 33 33 33 33 33 33 33 33 33 32 32 31 31 32 32
34 34 34 34 35 35 35 35 36 36 37 37 37 37 37 37 37 36 36 36 36 36 35 35 36 36 36 36 36 36 36 36 35 35 35 35 36 36 35 35 34 34 34
37 37 37 37 37 37 38 38 39 39 40 40 41 41 41 40 40 40 40 40 39 39 39 38 39 39 39 39 39 39 39 39 38 38 38 38 39 39 38 38 38 38 37
39 39 39 39 40 40 41 41 41 42 43 43 44 45 44 44 43 43 43 43 43 43 43 42 42 42 41 42 42 42 42 42 42 41 42 42 41 41 41 41 41 41 41
41 41 41 42 42 43 43 43 44 45 46 46 47 48 48 47 47 47 47 47 47 46 45 45 45 44 44 44 45 46 46 46 45 45 45 45 45 44 44 44 44 44 44
42 43 43 44 44 45 45 46 47 47 48 49 50 50 51 52 51 50 50 50 49 49 48 48 48 47 47 47 48 49 49 49 48 47 47 47 47 47 47 47 47 47 47
44 44 45 45 46 47 47 48 48 49 50 51 52 53 54 55 54 54 53 53 52 52 51 50 50 50 50 50 50 51 51 51 51 50 49 49 49 49 49 49 49 49 49
45 46 47 47 47 48 49 49 50 51 52 53 54 54 55 56 56 57 57 56 56 54 54 53 53 53 53 53 53 52 53 54 53 51 50 51 51 51 51 51 51 51 52
46 46 47 48 48 49 49 50 51 52 54 55 56 56 57 58 58 58 59 58 58 57 56 55 54 54 56 56 55 56 56 55 53 53 53 53 53 53 53 52 52 53 54
46 46 46 47 48 48 49 51 52 54 55 56 57 58 59 59 60 60 59 58 58 58 57 57 56 56 57 56 56 56 55 54 54 53 53 53 53 54 54 54 55 55 56
45 45 45 46 46 47 49 51 53 54 55 57 58 58 59 60 60 60 59 58 58 58 58 58 57 57 58 56 56 56 55 55 53 52 53 53 53 53 54 55 56 57 58
44 44 44 45 46 47 49 51 52 53 54 56 57 57 58 59 59 58 57 56 56 56 57 56 57 57 58 57 55 55 56 55 55 55 54 54 55 56 57 57 58 59 59
42 42 42 43 45 46 48 49 50 52 53 53 54 54 54 53 54 54 54 55 54 54 54 55 55 56 57 57 56 55 55 54 54 54 54 55 57 58 59 59 60 61 62
39 39 41 42 43 45 46 47 48 49 49 49 50 50 49 48 49 49 50 51 51 51 52 52 52 54 55 56 55 54 55 54 53 54 56 57 57 58 59 60 61 62 63
37 38 38 39 41 42 43 44 45 45 45 45 44 44 44 43 43 43 44 46 47 49 49 50 51 51 52 53 54 54 54 53 54 55 57 57 58 59 60 61 62 63 64
35 36 37 38 39 40 40 41 41 41 40 40 40 39 39 39 38 38 40 41 43 45 47 48 48 49 51 53 53 53 53 55 55 57 57 59 59 60 61 62 63 63 63
34 34 35 36 37 37 37 37 36 36 36 35 35 35 34 34 34 36 37 38 40 42 45 46 46 48 50 50 52 52 53 55 57 58 58 59 60 61 61 62 62 62 62
31 32 32 33 33 34 34 34 33 33 32 32 32 32 32 32 33 34 35 37 39 41 42 44 45 47 49 50 51 52 54 55 57 58 58 59 60 60 60 60 60 60 60
29 29 30 30 31 31 31 32 32 31 30 30 29 30 30 30 31 32 34 36 37 38 41 42 45 47 48 50 52 53 54 56 57 58 58 58 59 58 58 58 58 58 57
27 27 28 28 28 28 28 28 28 28 27 28 27 27 28 29 30 33 35 36 37 39 41 43 45 46 48 50 52 53 55 56 57 58 58 55 55 55 54 55 57 57 56
25 26 26 27 27 27 27 27 27 27 27 27 27 28 29 30 31 33 35 37 38 40 42 44 46 48 50 52 53 54 55 55 55 56 56 54 53 52 52 53 55 54 53
24 25 25 25 26 26 26 25 25 25 26 26 27 28 29 30 32 34 36 38 40 42 44 46 48 50 51 52 53 54 54 54 54 53 53 52 51 50 47 48 50 51 50
Wind_Direction
279 280 280 281 283 283 285 287 289 291 292 293 293 294 295 297 299 300 301 301 302 303 303 303 304 303 302 301 301 300 300 299 298 297 296 295 294 293 291 290 288 285 283
279 280 280 280 281 282 283 285 287 289 290 290 291 291 292 293 294 295 297 298 299 299 300 300 300 301 300 299 299 298 298 298 297 296 295 295 294 293 292 290 288 286 285
278 279 280 280 281 282 283 284 285 286 287 288 288 289 289 290 291 292 293 294 295 296 296 296 297 297 297 297 296 296 296 296 295 294 293 293 293 292 291 290 288 287 285
277 278 279 280 280 282 283 283 284 284 285 286 286 287 287 288 289 289 290 291 292 292 293 294 294 294 294 294 294 293 293 292 292 291 291 291 291 291 290 289 288 287 285
277 279 279 280 281 281 282 282 282 282 283 284 284 285 286 286 286 288 288 288 289 289 290 291 291 292 292 292 292 291 290 290 289 289 289 289 288 288 287 286 286 285 285
277 279 279 280 281 281 281 281 281 281 282 283 283 283 284 284 285 286 287 287 287 287 288 288 289 290 289 289 290 289 288 288 287 287 287 287 286 285 284 284 284 284 284
277 278 279 280 280 280 280 280 281 281 282 282 282 282 282 283 284 285 285 285 286 286 286 286 287 287 288 287 288 288 287 287 286 286 286 286 286 284 283 283 283 282 282
277 278 278 279 280 280 280 281 281 281 281 282 282 282 282 282 283 283 283 284 284 284 285 285 285 286 287 287 286 286 286 286 286 286 285 285 285 283 282 282 282 281 280
277 278 278 279 279 280 280 281 281 281 281 281 282 282 282 282 281 281 282 283 283 282 283 284 284 284 285 287 287 286 285 285 285 286 285 284 283 282 282 282 281 280 279
277 278 278 279 280 280 280 281 281 281 281 281 281 281 281 281 281 281 281 282 282 282 282 282 283 284 284 286 287 285 284 284 284 284 284 284 283 282 282 281 280 279 279
276 277 278 279 279 280 280 281 281 280 281 281 281 281 281 281 281 281 281 281 281 281 281 282 282 283 283 285 286 286 284 283 283 284 283 283 283 282 282 282 280 279 279
276 277 278 279 279 280 280 280 280 281 281 281 281 281 281 281 282 281 280 280 280 280 281 280 281 281 282 284 285 286 285 284 283 282 282 283 283 282 281 281 280 279 279
276 276 277 279 279 280 280 281 281 282 282 282 282 282 281 280 280 280 280 280 279 279 279 280 280 280 282 283 284 285 285 285 284 283 283 283 284 283 281 281 280 280 280
275 276 277 278 279 280 280 281 282 283 283 283 282 282 281 280 279 278 278 278 278 278 277 278 278 279 281 282 284 285 286 285 285 285 285 284 284 284 282 281 281 281 280
276 277 278 279 279 280 281 282 283 284 283 283 282 281 281 280 279 278 277 277 277 277 277 278 277 279 280 282 284 284 285 284 285 286 287 286 285 285 283 282 282 282 281
276 277 278 280 280 282 283 283 284 285 284 283 283 282 281 280 279 277 276 276 276 276 276 277 277 277 280 284 285 285 285 285 287 288 288 287 286 286 285 284 283 283 283
277 278 279 281 282 283 284 285 286 286 286 285 284 283 282 281 279 277 274 274 274 275 275 276 276 277 280 284 286 286 288 289 289 288 287 287 287 286 286 285 284 284 284
278 280 281 283 285 286 286 287 288 289 288 288 286 284 283 282 280 278 276 276 276 275 275 277 278 280 282 284 286 287 289 289 288 288 288 288 288 288 287 287 286 285 285
279 281 284 286 288 289 289 290 291 291 290 289 288 286 284 283 282 280 278 277 276 276 278 279 280 282 283 285 286 287 290 290 290 289 290 290 290 290 289 288 288 288 287
281 284 285 287 289 291 292 293 294 293 292 291 289 287 285 283 281 280 280 279 278 278 279 281 282 284 285 285 286 288 289 290 291 291 291 292 292 291 291 291 290 289 289
283 285 287 289 291 293 294 295 297 297 296 294 291 288 286 284 282 282 282 281 281 281 282 283 284 285 286 287 288 290 290 291 292 292 293 293 293 293 293 292 291 290 290
285 287 290 293 294 295 295 295 297 298 297 297 294 290 288 287 285 284 283 283 284 284 284 285 286 287 289 290 291 291 292 293 293 294 295 295 295 295 294 293 292 292 292
286 290 293 296 297 297 297 297 297 297 297 296 294 292 290 289 288 287 287 287 288 288 288 288 289 291 292 293 293 294 295 295 295 295 296 296 295 295 294 293 293 293 293
288 291 294 296 298 300 301 302 302 302 301 299 297 297 295 293 292 291 292 292 293 293 293 293 294 295 295 296 296 296 296 297 297 296 297 296 295 295 295 294 294 294 294
289 292 295 297 299 300 301 302 303 302 301 301 300 299 298 297 296 295 295 295 296 296 297 297 297 298 298 298 298 298 298 298 298 298 298 297 296 295 295 295 295 294 294
290 292 296 298 300 302 303 302 302 302 303 303 303 302 301 301 300 300 300 300 300 300 300 300 300 300 300 300 300 300 300 300 299 298 298 298 297 296 295 295 295 295 294
Height
5846 5846 5846 5846 5846 5846 5846 5845 5845 5844 5844 5843 5842 5841 5840 5839 5839 5838 5836 5835 5833 5832 5830 5829 5827 5826 5824 5822 5821 5819 5818 5816 5815 5813 5812 5811 5810 5809 5808 5807 5807 5806 5806
5841 5841 5841 5841 5841 5841 5841 5841 5840 5839 5839 5838 5837 5836 5835 5834 5834 5833 5831 5830 5828 5827 5825 5824 5822 5820 5819 5817 5815 5814 5812 5810 5809 5807 5806 5805 5804 5803 5802 5801 5800 5800 5799
5835 5836 5836 5836 5836 5836 5836 5835 5835 5834 5833 5832 5832 5831 5830 5829 5828 5827 5826 5824 5823 5821 5820 5818 5816 5815 5813 5811 5810 5808 5806 5804 5803 5801 5800 5799 5797 5796 5795 5794 5794 5793 5793
5829 5830 5830 5830 5830 5830 5830 5829 5828 5828 5827 5826 5825 5824 5823 5822 5821 5820 5820 5818 5817 5815 5813 5812 5810 5808 5807 5805 5803 5802 5800 5798 5796 5795 5794 5792 5791 5790 5788 5787 5787 5786 5785
5823 5823 5824 5824 5823 5823 5823 5822 5822 5821 5820 5819 5818 5817 5816 5815 5814 5813 5812 5811 5810 5808 5806 5805 5803 5801 5799 5798 5796 5794 5793 5791 5789 5788 5786 5785 5783 5782 5781 5780 5779 5778 5777
5816 5816 5817 5816 5816 5816 5816 5815 5814 5813 5813 5811 5810 5810 5808 5807 5806 5805 5804 5802 5801 5800 5799 5797 5795 5793 5791 5790 5788 5786 5784 5783 5781 5779 5778 5777 5775 5774 5773 5772 5771 5770 5769
5809 5809 5809 5809 5808 5808 5807 5807 5806 5805 5804 5803 5802 5801 5800 5799 5798 5796 5794 5793 5792 5790 5789 5788 5786 5784 5782 5781 5779 5777 5775 5774 5772 5771 5769 5768 5766 5765 5764 5763 5762 5761 5760
5801 5801 5801 5800 5800 5799 5799 5798 5797 5796 5795 5793 5792 5790 5790 5790 5789 5786 5785 5783 5782 5780 5779 5778 5776 5775 5773 5771 5769 5767 5765 5764 5762 5761 5759 5758 5756 5755 5754 5753 5752 5751 5750
5792 5792 5792 5791 5791 5790 5789 5788 5787 5786 5785 5783 5782 5780 5779 5779 5777 5776 5774 5772 5771 5770 5768 5766 5765 5764 5763 5761 5758 5756 5754 5753 5751 5750 5748 5747 5745 5744 5743 5742 5740 5739 5738
5783 5783 5783 5782 5781 5780 5780 5778 5777 5776 5774 5773 5771 5769 5768 5766 5765 5764 5763 5761 5759 5758 5756 5754 5753 5752 5750 5749 5747 5745 5742 5740 5739 5737 5736 5734 5733 5732 5730 5729 5728 5727 5726
5775 5774 5773 5772 5771 5770 5769 5768 5766 5765 5763 5761 5760 5758 5755 5753 5751 5750 5749 5749 5747 5745 5744 5742 5740 5739 5737 5736 5734 5732 5730 5727 5726 5724 5723 5721 5720 5718 5717 5716 5715 5714 5713
5765 5764 5763 5762 5761 5760 5758 5757 5755 5753 5751 5749 5748 5746 5743 5741 5739 5736 5735 5734 5733 5732 5730 5729 5728 5726 5724 5722 5721 5719 5717 5714 5713 5711 5709 5707 5706 5705 5703 5702 5701 5700 5698
5756 5755 5753 5752 5750 5749 5747 5745 5743 5741 5739 5737 5734 5732 5730 5728 5726 5723 5721 5719 5718 5718 5716 5715 5713 5712 5711 5708 5706 5704 5702 5701 5698 5697 5695 5693 5692 5690 5689 5687 5686 5684 5683
5746 5745 5743 5741 5740 5738 5736 5734 5731 5729 5726 5723 5720 5717 5715 5713 5711 5709 5707 5705 5703 5702 5702 5701 5699 5697 5696 5694 5692 5690 5688 5686 5684 5682 5680 5678 5677 5675 5673 5672 5670 5669 5667
5735 5734 5733 5731 5729 5727 5724 5722 5719 5716 5713 5709 5706 5703 5699 5697 5695 5693 5692 5690 5689 5687 5688 5686 5684 5683 5681 5680 5678 5676 5674 5671 5668 5666 5665 5663 5661 5659 5657 5656 5654 5652 5650
5725 5724 5722 5720 5718 5715 5712 5709 5706 5702 5699 5695 5691 5688 5684 5682 5679 5678 5677 5675 5674 5673 5673 5672 5671 5669 5667 5666 5663 5661 5660 5657 5654 5652 5650 5648 5646 5644 5641 5639 5637 5634 5632
5715 5713 5711 5709 5706 5703 5700 5696 5693 5689 5684 5680 5676 5673 5669 5666 5664 5663 5662 5661 5660 5660 5659 5658 5657 5655 5654 5652 5649 5647 5645 5642 5639 5637 5634 5632 5629 5627 5624 5621 5618 5615 5612
5704 5702 5700 5698 5695 5692 5688 5684 5680 5675 5671 5667 5663 5659 5655 5653 5651 5649 5649 5648 5647 5647 5646 5645 5643 5642 5640 5638 5636 5633 5630 5628 5625 5622 5619 5616 5612 5609 5606 5602 5599 5596 5592
5694 5692 5689 5687 5683 5680 5676 5672 5667 5663 5658 5654 5650 5646 5643 5641 5639 5638 5637 5636 5636 5635 5633 5633 5631 5629 5627 5625 5623 5619 5616 5613 5609 5606 5603 5599 5595 5591 5587 5583 5579 5575 5572
5684 5681 5679 5676 5673 5669 5665 5660 5656 5651 5647 5643 5639 5635 5633 5630 5629 5628 5627 5626 5625 5624 5623 5621 5619 5617 5615 5612 5609 5606 5602 5598 5594 5590 5586 5581 5577 5572 5567 5563 5558 5554 5550
5674 5672 5669 5666 5662 5658 5654 5650 5646 5641 5637 5633 5629 5626 5624 5622 5620 5619 5618 5616 5615 5614 5612 5610 5608 5605 5602 5599 5596 5592 5588 5583 5578 5574 5570 5564 5559 5553 5547 5542 5537 5533 5529
5665 5662 5659 5656 5653 5649 5645 5641 5637 5633 5629 5625 5621 5618 5616 5614 5612 5611 5609 5607 5606 5604 5602 5599 5597 5593 5590 5586 5582 5578 5573 5569 5563 5558 5554 5546 5540 5535 5528 5522 5517 5513 5509
5656 5654 5651 5647 5644 5640 5636 5633 5629 5625 5621 5617 5614 5611 5609 5607 5605 5603 5601 5598 5596 5593 5591 5588 5585 5581 5577 5573 5569 5564 5558 5553 5546 5540 5537 5531 5523 5518 5510 5504 5498 5494 5490
5648 5646 5643 5640 5637 5633 5629 5625 5622 5618 5614 5611 5608 5605 5602 5600 5598 5595 5593 5590 5587 5584 5581 5577 5573 5569 5564 5559 5554 5549 5543 5537 5530 5523 5519 5515 5507 5502 5494 5486 5480 5476 5472
5641 5639 5636 5633 5630 5626 5623 5619 5615 5612 5609 5605 5602 5599 5596 5593 5591 5588 5585 5581 5578 5574 5569 5565 5560 5555 5550 5544 5539 5533 5527 5521 5515 5506 5500 5498 5492 5487 5481 5472 5464 5458 5454
5635 5632 5629 5626 5623 5620 5616 5613 5610 5606 5603 5600 5596 5593 5590 5586 5583 5579 5576 5572 5568 5563 5558 5553 5547 5542 5536 5530 5523 5518 5511 5505 5498 5492 5485 5481 5476 5470 5468 5460 5450 5443 5438